Zurück zum Katalog

IUS DEB

AktivHEO
NORAD 43366·DEBRIS·🇺🇸 United States

Gestartet Jul 23, 1999 von Cape Canaveral Space Force Station

Loading…

Nächste Überflüge (nächste 24 Stunden)

TLE

AktuellSource: Space-Track

Epoche: Sep 13, 2026, 23:37 UTC

1 43366U 99040P   26256.98444922  .00000979  00000-0  41127-2 0  9999
2 43366  28.1242 165.6104 3831799 172.2191 196.1278  7.03787771274520

Verfolge IUS DEB in Echtzeit mit AllMySat

Download on the App Store